Regional Weather Roundup
Issued by NWS Raleigh/Durham, NC

Home | Current Version | Previous Version | Text Only | Print | Product List | Glossary On
Versions: 1 2 3 4 5 6 7 8 9 10 11 12 13 14 15 16 17 18 19 20 21 22 23 24 25 26 27 28 29 30 31 32 33 34 35 36 37 38 39 40 41 42 43 44 45 46 47 48 49 50
000
ASUS42 KRAH 040310
RWRRAH
NORTH CAROLINA WEATHER ROUNDUP
NATIONAL WEATHER SERVICE RALEIGH NC
1000 PM EST SAT DEC 03 2016

NOTE: "FAIR" INDICATES FEW OR NO CLOUDS BELOW 12,000 FEET WITH NO
SIGNIFICANT WEATHER AND/OR OBSTRUCTIONS TO VISIBILITY.

NCZ001-053-055-056-065-067-040400-
WESTERN NORTH CAROLINA

CITY           SKY/WX    TMP DP  RH WIND       PRES   REMARKS
ASHEVILLE      CLOUDY    44  30  57 CALM      30.23S
JEFFERSON      CLOUDY    35  27  73 CALM      30.21R
MORGANTON      CLOUDY    45  32  60 E3        30.30S
HICKORY        CLOUDY    45  29  53 E3        30.26R
RUTHERFORDTON  CLOUDY    47  33  57 SE3       30.25F
MOUNT AIRY     CLOUDY    42  30  62 N3        30.29R
BOONE          PTCLDY    37  28  70 CALM      30.22S
$$

NCZ021-022-025-041-071-084-088-040400-
CENTRAL NORTH CAROLINA

CITY           SKY/WX    TMP DP  RH WIND       PRES   REMARKS
CHARLOTTE      CLOUDY    48  30  49 E5        30.27S
GREENSBORO     CLOUDY    43  30  60 E3        30.26S
WINSTON-SALEM  CLOUDY    44  28  53 CALM      30.28R
RALEIGH-DURHAM CLOUDY    46  29  51 N3        30.29R
FORT BRAGG     MOCLDY    46  40  80 CALM      30.28R
FAYETTEVILLE   MOCLDY    48  37  65 W3        30.29R
BURLINGTON     CLOUDY    44  29  55 CALM      30.28R
LAURINBURG     MOCLDY    45  40  82 SW3       30.30R
$$

NCZ011-015-027-028-043-044-047-080-103-040400-
NORTHEASTERN NORTH CAROLINA

CITY           SKY/WX    TMP DP  RH WIND       PRES   REMARKS
ROCKY MT-WILSO PTCLDY    41  38  89 CALM      30.28R
GREENVILLE     PTCLDY    41  37  87 CALM      30.28R
WASHINGTON     CLOUDY    40  35  83 CALM      30.28R
ELIZABETH CITY PTCLDY    41  33  73 W5        30.27R
MANTEO         PTCLDY    47  33  59 N7        30.25R
CAPE HATTERAS  PTCLDY    49  33  54 VRB6      30.25R
$$

NCZ078-087-090-091-093-098-101-040400-
SOUTHEASTERN NORTH CAROLINA

CITY           SKY/WX    TMP DP  RH WIND       PRES   REMARKS
LUMBERTON      PTCLDY    47  41  80 CALM      30.29R
GOLDSBORO      MOCLDY    44  37  77 CALM      30.27R
KINSTON        MOCLDY    41  37  87 CALM      30.28R
KENANSVILLE    PTCLDY    43  39  87 CALM      30.28R
NEW BERN       CLOUDY    42  37  82 CALM      30.28R
CHERRY POINT   MOCLDY    44  37  76 CALM      30.27R
BEAUFORT       CLOUDY    46  38  73 N5        30.26R
JACKSONVILLE   PTCLDY    43  40  89 W3        30.27R
WILMINGTON     CLOUDY    46  37  71 CALM      30.27R
$$




USA.gov is the U.S. government's official web portal to all federal, state and local government web resources and services.